Regional Weather Roundup
Issued by NWS New Orleans/Baton Rouge, LA

Home | Current Version | Previous Version | Graphics & Text | Print | Product List | Glossary On
Versions: 1 2 3 4 5 6 7 8 9 10 11 12 13 14 15 16 17 18 19 20 21 22 23 24 25 26 27 28 29 30 31 32 33 34 35 36 37 38 39 40 41 42 43 44 45 46 47 48 49 50
918
ASUS44 KLIX 301505
RWRLIX
NEW ORLEANS REGIONAL WEATHER ROUNDUP
NATIONAL WEATHER SERVICE NEW ORLEANS LA
1000 AM CDT WED JUL 30 2014

NOTE: "FAIR" INDICATES FEW OR NO CLOUDS BELOW 12,000 FEET WITH NO
      SIGNIFICANT WEATHER AND/OR OBSTRUCTIONS TO VISIBILITY.
      SKY/WX - SKY CONDITION AND SIGNIFICANT WEATHER.
      TMP - AIR TEMPERATURE.     DP    - DEWPOINT TEMPERATURE.
      RH  - RELATIVE HUMIDITY.   PRES  - PRESSURE.
      HI  - HEAT INDEX.          WCI   - WIND CHILL INDEX.

*  THESE STATIONS ARE NOT NWS OR FAA STATIONS AND ARE NOT UNDER
   NWS QUALITY CONTROL.

LAZ038-040-048-061>063-065>067-069-301600-
SOUTHEAST LOUISIANA

CITY           SKY/WX    TMP DP  RH WIND       PRES   REMARKS
N.O. AUDUBON     N/A     86  62  44 MISG        N/A
N.O. INTL ARPT MOSUNNY   83  61  47 NE9       30.07S
N.O. LAKEFRONT MOSUNNY   80  60  50 NE10      30.08S
N.O. DOWNTOWN*   N/A     81  57  44 N6        30.08R
SLIDELL        SUNNY     78  60  53 E7        30.08S
BATON ROUGE    SUNNY     77  62  59 NE8       30.10R
BOOTHVILLE     SUNNY     82  69  64 NE7       30.06S
BELLE CHASSE   MOSUNNY   81  66  60 NE9       30.07S
BOGALUSA*        N/A     78  61  56 NE6       30.10F
GALLIANO*      NOT AVBL
NEW ROADS*       N/A     77  63  61 CALM      30.10S
GONZALES*        N/A     78  65  64 CALM      30.08S
HAMMOND*       SUNNY     79  57  47 E5        30.10S
HOUMA*         SUNNY     82  66  57 NE6       30.07S
PORT FOURCHON* SUNNY     82  72  69 NE8       30.08R

$$

MSZ070-080>082-301600-
SOUTHERN MISSISSIPPI

CITY           SKY/WX    TMP DP  RH WIND       PRES   REMARKS
MCCOMB         SUNNY     76  56  49 NE7       30.11F
GULFPORT       SUNNY     83  57  41 N6        30.07R
BILOXI         SUNNY     80  57  45 E8        30.07R
PASCAGOULA     SUNNY     79  60  52 NE7       30.07R
STENNIS ARPT*  SUNNY    N/A N/A N/A E5        30.08S

$$

COASTAL OBSERVATIONS
LAKE AND NEARSHORE STATIONS

STATION/POSITION TIME  TEMP    WIND        PRES    WAVE
                       AIR SEA DIR/SP/G            HT/PER
                 (UTC) (F)     (DEG/KT/KT) (MB)    (FT/S)
PASCAGOULA       1500   80      30/  5/  7 1017.5
WAVELAND YACHT   1500   75      40/  4/  7 1017.8
GRAND ISLE       1500   82 86   70/  8/ 11 1018.4
SOUTHWEST PASS   1500   85 84   70/  9/ 10 1017.8
NEW CANAL        1500   77 82   60/ 10/ 11 1018.7
SHELL BEACH      1500   78 79   40/  9/ 11 1017.8

OFFSHORE STATIONS

STATION/POSITION TIME  TEMP    WIND        PRES    WAVE
                       AIR SEA DIR/SP/G            HT/PER
                 (UTC) (F)     (DEG/KT/KT) (MB)    (FT/S)
64 S DAUPHIN ISL 1431   81 85   40/ 10/ 12 1017.4

$$




USA.gov is the U.S. government's official web portal to all federal, state and local government web resources and services.